Location: Tr�vern
(48.0333°N, 4.6000°W)
Time: 01:20:43
(UTC+00:00)

Cosmos 1184 Rocket - Pass Details

Date: 14 July 2020
Orbit: 408 x 421 km, 81.2° (Epoch: 04 August)

Event Time Altitude Azimuth Distance (km) Brightness Sun altitude
Exits shadow 00:49:37 24° 95° (E) 912 4.4 -20.1°
Maximum altitude 00:49:43 24° 93° (E) 912 4.4 -20.1°
Drops below altitude 10° 00:52:24 10° 37° (NE) 1,503 6.4 -20.1°
Sets 00:54:41 0° 23° (NNE) 2,375 8.0 -20.0°
